This is the latest recevied weather packets stored in our database for station/object SP6W-10. If no packets are shown the sender has not sent any weather packets the latest 10 day(s).
| Time | Temp. | Humidity | Pressure | Rain* | Wind** | Luminosity | Snow |
|---|---|---|---|---|---|---|---|
| 1778069584 | 31.11° C | 24% | 1006.9 hPa | - | - | - | - |
| 1778067785 | 30.56° C | 25% | 1006.8 hPa | - | - | - | - |
| 1778065985 | 30° C | 25% | 1006.9 hPa | - | - | - | - |
| 1778064184 | 30.56° C | 26% | 1006.8 hPa | - | - | - | - |
| 1778062385 | 30° C | 26% | 1006.9 hPa | - | - | - | - |
| 1778060584 | 29.44° C | 27% | 1006.9 hPa | - | - | - | - |
| 1778056982 | 29.44° C | 28% | 1006.7 hPa | - | - | - | - |
| 1778055182 | 29.44° C | 30% | 1006.4 hPa | - | - | - | - |
| 1778053382 | 28.89° C | 31% | 1006.5 hPa | - | - | - | - |
| 1778051582 | 28.89° C | 31% | 1006.3 hPa | - | - | - | - |
| 1778049782 | 28.89° C | 31% | 1006.2 hPa | - | - | - | - |
| 1778047982 | 28.89° C | 30% | 1006.3 hPa | - | - | - | - |
| 1778046182 | 28.33° C | 29% | 1006.2 hPa | - | - | - | - |
| 1778044382 | 28.33° C | 30% | 1006 hPa | - | - | - | - |
| 1778042582 | 28.33° C | 29% | 1005.8 hPa | - | - | - | - |
| 1778040782 | 28.89° C | 29% | 1005.4 hPa | - | - | - | - |
| 1778038982 | 28.89° C | 29% | 1005.5 hPa | - | - | - | - |
| 1778037182 | 28.89° C | 28% | 1005.7 hPa | - | - | - | - |
| 1778035382 | 28.89° C | 28% | 1005.4 hPa | - | - | - | - |
| 1778033582 | 28.89° C | 28% | 1005.6 hPa | - | - | - | - |
| 1778031782 | 29.44° C | 28% | 1006.2 hPa | - | - | - | - |
| 1778029982 | 29.44° C | 28% | 1006.3 hPa | - | - | - | - |
| 1778028182 | 29.44° C | 27% | 1006.2 hPa | - | - | - | - |
| 1778026382 | 29.44° C | 27% | 1006.4 hPa | - | - | - | - |
| 1778024582 | 29.44° C | 28% | 1006.4 hPa | - | - | - | - |
* Rain since midnight (hover to see other rain measurements)
** Current wind speed in m/s (hover to see current wind gust speed)